Weather History for KIMT - November, 2014

Change the Weather History Date:

Monday, November 3, 2014

  Actual Average Record
Temperature  
Mean Temperature 42 °F -  
Max Temperature 53 °F 46 °F 75 °F (1978)
Min Temperature 30 °F 30 °F 0 °F (1951)
Degree Days  
Heating Degree Days 24    
Moisture  
Dew Point 32 °F    
Average Humidity 69    
Maximum Humidity 86    
Minimum Humidity 43    
Precipitation  
Precipitation 0.00 in - - ()
Sea Level Pressure  
Sea Level Pressure 29.91 in    
Wind  
Wind Speed 6 mph (SSE)    
Max Wind Speed 10 mph    
Max Gust Speed -    
Visibility 10 miles    
Events Rain    
Averages and records for this station are not official NWS values.
T = Trace of Precipitation, MM = Missing Value Source: NWS Daily Summary

Daily Weather History Graph

Daily Weather History Graph

Search for Another Location

Airport or City:

Trip Planner

Search our weather history database for the weather conditions in past years. The results will help you decide how hot, cold, wet, or windy it might be!

Date:

Astronomy

Nov. 03, 2014 Rise Set
Actual Time 6:35 AM CST 4:35 PM CST
Civil Twilight 6:04 AM CST 5:07 PM CST
Nautical Twilight 5:28 AM CST 5:42 PM CST
Astronomical Twilight 4:54 AM CST 6:17 PM CST
Moon 2:55 PM CST (11/3) 2:33 AM CST (11/3)
Length of Visible Light 11h 03m
Length of Day
10h 00m
Waxing Gibbous, 87% of the Moon is Illuminated
Nov 3
Waxing Gibbous
Nov 6
Full
Nov 14
Last Quarter
Nov 22
New
Nov 29
First Quarter

Hourly Weather History & Observations

Time (CST) Temp. Windchill Dew Point Humidity Pressure Visibility Wind Dir Wind Speed Gust Speed Precip Events Conditions
12:54 AM 35.1 °F 31.0 °F 27.0 °F 72% 30.04 in 10.0 mi SE 4.6 mph - N/A   Clear
1:54 AM 34.0 °F 28.8 °F 26.1 °F 73% 30.02 in 10.0 mi SSE 5.8 mph - N/A   Clear
2:54 AM 34.0 °F 31.0 °F 26.1 °F 73% 30.01 in 10.0 mi SE 3.5 mph - N/A   Clear
3:54 AM 32.0 °F 28.7 °F 26.1 °F 79% 30.00 in 10.0 mi SE 3.5 mph - N/A   Clear
4:54 AM 32.0 °F 27.5 °F 26.1 °F 79% 29.99 in 10.0 mi ESE 4.6 mph - N/A   Clear
5:54 AM 30.9 °F 25.2 °F 25.0 °F 79% 29.97 in 10.0 mi SE 5.8 mph - N/A   Clear
6:54 AM 32.0 °F 28.7 °F 25.0 °F 75% 29.97 in 10.0 mi ESE 3.5 mph - N/A   Clear
7:54 AM 35.1 °F 29.3 °F 26.1 °F 70% 29.96 in 10.0 mi SSE 6.9 mph - N/A   Clear
8:54 AM 39.0 °F 34.8 °F 26.1 °F 60% 29.94 in 10.0 mi SSE 5.8 mph - N/A   Clear
9:54 AM 45.0 °F 41.8 °F 27.0 °F 49% 29.94 in 10.0 mi Variable 5.8 mph - N/A   Clear
10:54 AM 46.9 °F - 28.0 °F 48% 29.94 in 10.0 mi SSE 6.9 mph - N/A   Clear
11:54 AM 52.0 °F - 30.0 °F 43% 29.90 in 10.0 mi SSE 10.4 mph - N/A   Clear
12:54 PM 53.1 °F - 30.9 °F 43% 29.86 in 10.0 mi SE 6.9 mph - N/A   Clear
1:54 PM 51.1 °F - 30.9 °F 46% 29.86 in 10.0 mi South 10.4 mph - N/A   Scattered Clouds
2:54 PM 46.9 °F - 32.0 °F 56% 29.88 in 10.0 mi SSE 10.4 mph - 0.00 in   Overcast
3:54 PM 45.0 °F 41.2 °F 36.0 °F 71% 29.89 in 10.0 mi South 6.9 mph - 0.00 in Rain Light Rain
4:54 PM 44.1 °F 40.1 °F 37.0 °F 76% 29.87 in 8.0 mi SSE 6.9 mph - 0.00 in Rain Light Rain
5:54 PM 45.0 °F 40.6 °F 36.0 °F 71% 29.88 in 10.0 mi South 8.1 mph - 0.00 in   Overcast
6:32 PM 44.1 °F 40.1 °F 37.9 °F 79% 29.85 in 10.0 mi South 6.9 mph - 0.00 in   Overcast
6:54 PM 44.1 °F 39.5 °F 37.9 °F 79% 29.88 in 10.0 mi South 8.1 mph - 0.00 in   Overcast
7:54 PM 45.0 °F 42.6 °F 37.9 °F 76% 29.85 in 10.0 mi SE 4.6 mph - N/A   Overcast
8:54 PM 45.0 °F 42.6 °F 37.9 °F 76% 29.82 in 10.0 mi SSE 4.6 mph - N/A   Overcast
9:54 PM 45.0 °F 42.6 °F 39.0 °F 80% 29.80 in 10.0 mi SE 4.6 mph - N/A   Overcast
10:54 PM 46.0 °F 42.5 °F 39.0 °F 76% 29.77 in 10.0 mi SSE 6.9 mph - N/A   Overcast
11:54 PM 45.0 °F 41.2 °F 41.0 °F 86% 29.76 in 7.0 mi SSE 6.9 mph - 0.00 in Rain Light Rain